sat.trackr.live / text

‹ back to catalog

STARLINK-37613

NORAD 69211 · 2026-115A

PAYLOAD ACTIVE UNKNOWN

§ Identity

Operator
Country
US
Launch date
2026-05-26
Launch site
AFWTR
Launch vehicle
Mass (kg)
RCS (m²)

Purposes: comms

External: N2YO · Heavens-Above · Gunter

§ Orbital elements

Epoch: 2026-09-20T00:46:14.776608Z

Period
93.91 min
Inclination
97.2834°
Eccentricity
0.0002021
Mean motion
15.33457779 rev/d
Perigee alt
464.1 km
Apogee alt
466.9 km
Semi-major
6,843.6 km
B*
5.4253e-4
RAAN
279.2029°
Arg perigee
89.2217°
Mean anomaly
270.9257°
Rev number
1,922

§ Raw data

STARLINK-376131 69211U 26115A   26263.03211547  .00017488  00000+0  54253-3 0  99952 69211  97.2834 279.2029 0002021  89.2217 270.9257 15.33457779 19226

JSON: /api/v1/satellites/69211 · /tle

For live sub-satellite position, see the globe view (requires WebGL).

§ Visibility from observer

Set your observer location to see the next 7 days of passes ≥ 10°. The values pass through the URL so the page stays shareable.

No JS? Fill the form by hand. The geolocation button needs JavaScript.